Location: NJAA Observatory
(40.6819°N, 74.8979°W)
Time: 00:44:39
(UTC-04:00)

Iridium 84 - Visible Passes

Search period start: 22 April 2018 00:00
Search period end: 02 May 2018 00:00
Orbit: 776 x 779 km, 86.4° (Epoch: 21 April)

Date Brightness Start Highest point End Pass type
(mag) Time Alt. Az. Time Alt. Az. Time Alt. Az.
22 Apr 7.3 01:29:52 28° NNE 01:29:52 28° NNE 01:32:24 10° NNE visible
22 Apr 7.6 03:10:20 15° NW 03:10:20 15° NW 03:11:57 10° NNW visible
23 Apr 7.7 00:56:23 20° NE 00:56:23 20° NE 00:58:23 10° NNE visible
23 Apr 7.3 02:36:51 23° NW 02:36:51 23° NW 02:39:17 10° NNW visible
24 Apr 8.1 00:22:53 12° NE 00:22:53 12° NE 00:23:43 10° NE visible
24 Apr 7.1 02:03:21 31° NNW 02:03:21 31° NNW 02:06:07 10° N visible
25 Apr 7.1 01:29:51 32° NNE 01:29:51 32° NNE 01:32:38 10° N visible
25 Apr 7.9 03:10:19 11° NW 03:10:19 11° NW 03:10:57 10° NW visible
26 Apr 7.4 00:56:20 25° NE 00:56:20 25° NE 00:58:50 10° NNE visible
26 Apr 7.5 02:36:48 19° NW 02:36:48 19° NW 02:38:57 10° NNW visible
27 Apr 7.7 00:22:49 17° NE 00:22:49 17° NE 00:24:37 10° NNE visible
27 Apr 7.1 02:03:17 28° NNW 02:03:17 28° NNW 02:06:03 10° NNW visible
28 Apr 6.9 01:29:46 35° N 01:29:46 35° N 01:32:44 10° N visible
29 Apr 7.0 00:56:15 32° NNE 00:56:15 32° NNE 00:59:08 10° N visible
29 Apr 7.7 02:36:42 14° NW 02:36:42 14° NW 02:38:20 10° NW visible
30 Apr 7.4 00:22:43 23° NE 00:22:43 23° NE 00:25:12 10° NNE visible
30 Apr 7.3 02:03:11 23° NW 02:03:11 23° NW 02:05:50 10° NNW visible
30 Apr 7.8 23:49:11 15° NE 23:49:11 15° NE 23:50:43 10° NE visible
01 May 6.9 01:29:38 34° NNW 01:29:38 34° NNW 01:32:44 10° N visible
